User: anonymous   Login
Location: Ottawa
(45.4170°N, 75.7000°W)
Time: 04:32:22
(UTC-04:00)
Language:

ISS - Orbit

View from above orbital plane
View from above orbital plane
View from above satellite
View from above satellite

Ground track
Ground track

The orbit data is extracted from the following two-line orbital elements,

1 25544U 98067A   24113.14912507  .00032091  00000-0  55558-3 0  9996
2 25544  51.6394 233.2687 0004696  92.4706 327.0209 15.50617837449850
Epoch (UTC): 22 April 2024 03:34:44
Eccentricity: 0.0004696
inclination: 51.6394°
perigee height: 412 km
apogee height: 418 km
right ascension of ascending node: 233.2687°
argument of perigee: 92.4706°
revolutions per day: 15.50617837
mean anomaly at epoch: 327.0209°
orbit number at epoch: 44985

The dashed part of the orbit path shows where the satellite is in the earth's shadow,  

DLR